DateTimeUTC,F1_A11,F1_S11,BsB_S11,BsG_S11,BsR_S11,BbsB_S11,BbsG_S11,BbsR_S11,BaB_A11,BaG_A11,BaR_A11,Tu_S11,T_S11,Uu_S11,U_S11,P_S11,T1_A11
2021-10-16T03:00:00Z,00000200,21000000,,,,,,,0000.15,0000.04,0000.14,15.9,23.2,,00.0,0667.6,30.8
2021-10-16T03:01:00Z,00000200,21000000,,,,,,,-000.07,0000.06,0000.03,15.9,23.2,,00.0,0667.6,30.8
2021-10-16T03:02:00Z,00000200,21000000,,,,,,,0000.22,0000.35,0000.20,15.9,23.2,,00.0,0667.5,30.8
2021-10-16T03:03:00Z,00000200,61000000,,,,,,,0000.49,0000.29,0000.18,15.9,23.2,,00.0,0667.5,30.8
2021-10-16T03:04:00Z,00000200,41000000,0002.34,0001.15,0001.01,0000.20,0000.30,0000.42,0000.40,0000.74,0000.92,16.2,23.0,,00.0,0668.4,30.8
2021-10-16T03:05:00Z,00000200,01000000,0002.68,0001.69,0000.79,0000.80,0000.10,0000.18,0000.70,0000.28,0000.41,16.2,23.0,,00.0,0668.4,30.8
2021-10-16T03:06:00Z,00000200,01000000,0001.33,0001.29,0000.97,-000.19,0000.40,0000.33,0000.88,0000.87,0000.40,16.3,23.0,,00.0,0668.4,30.8
2021-10-16T03:07:00Z,00000200,01000000,0002.93,0001.45,0000.98,-000.74,0000.12,-000.09,0000.09,0000.27,-000.23,16.3,23.0,,00.0,0668.4,30.8
2021-10-16T03:08:00Z,00000200,01000000,0002.81,0001.50,0000.95,0000.06,0000.54,0000.62,0000.39,0000.33,0000.49,16.3,23.0,,00.0,0668.4,30.8
2021-10-16T03:09:00Z,00000200,01000000,0002.22,0001.31,0000.92,-000.15,0000.08,0000.10,0000.56,0000.68,0000.61,16.4,23.0,,00.0,0668.4,30.8
2021-10-16T03:10:00Z,00000200,01000000,0002.57,0001.68,0001.01,-000.29,-000.02,0000.05,0000.84,0000.34,0000.25,16.4,23.0,,00.0,0668.4,30.8
2021-10-16T03:11:00Z,00000200,01000000,0002.77,0001.39,0001.16,0000.35,0000.19,0000.42,0000.68,0000.42,0000.60,16.4,23.0,,00.0,0668.4,30.8
2021-10-16T03:12:00Z,00000200,01000000,0002.48,0001.68,0001.01,-000.48,0000.24,0000.53,0000.88,0000.94,-000.06,16.4,23.0,,00.0,0668.4,30.8
2021-10-16T03:13:00Z,00000200,01000000,0003.51,0001.42,0001.34,-000.06,0000.26,0000.57,0000.29,0000.87,0000.53,16.3,23.0,,00.0,0668.4,30.8
2021-10-16T03:14:00Z,00000200,01000000,0002.71,0001.85,0000.89,0000.42,0000.32,0000.14,0000.61,0000.15,0000.36,16.3,23.0,,00.0,0668.4,30.8
2021-10-16T03:15:00Z,00000200,01000000,0002.45,0001.75,0001.03,-000.09,0000.28,0000.30,0000.40,0000.56,0000.51,16.3,23.0,,00.0,0668.4,30.8
2021-10-16T03:16:00Z,00000200,01000000,0002.66,0001.88,0001.00,-000.33,0000.31,0000.44,0000.83,0000.48,0000.70,16.3,23.0,,00.0,0668.4,30.8
2021-10-16T03:17:00Z,00000200,01000000,0002.53,0001.38,0001.01,-000.37,0000.25,-000.02,0000.76,0000.64,0000.26,16.4,23.0,,00.0,0668.4,30.8
2021-10-16T03:18:00Z,00000200,01000000,0003.16,0001.71,0001.14,-000.10,0000.49,0000.28,0000.59,0000.35,0000.16,16.4,23.0,,00.0,0668.4,30.8
2021-10-16T03:19:00Z,00000200,01000000,0002.41,0001.70,0001.07,0000.31,0000.32,0000.13,0000.40,0000.47,0000.40,16.5,23.0,,00.0,0668.4,30.8
2021-10-16T03:20:00Z,00000200,01000000,0002.03,0001.57,0001.24,-000.18,0000.29,0000.60,0000.46,0000.89,0000.32,16.5,23.0,,00.0,0668.4,30.8
2021-10-16T03:21:00Z,00000200,01000000,0003.25,0001.69,0001.11,-000.05,0000.50,0000.43,0000.76,0000.53,0000.29,16.5,23.0,,00.0,0668.4,30.8
2021-10-16T03:22:00Z,00000200,01000000,0001.98,0001.82,0001.47,0000.19,0000.09,0000.53,0000.64,0000.54,0000.95,16.5,23.0,,00.0,0668.5,30.8
2021-10-16T03:23:00Z,00000200,01000000,0002.28,0001.58,0001.27,-000.16,0000.45,0000.19,0000.41,0000.43,0000.22,16.6,23.1,,00.0,0668.5,30.8
2021-10-16T03:24:00Z,00000200,01000000,0003.29,0001.29,0001.09,0000.18,0000.48,0000.48,0000.59,0000.33,0000.19,16.6,23.1,,00.0,0668.4,30.8
2021-10-16T03:25:00Z,00000200,01000000,0002.40,0001.85,0001.18,0000.47,0000.51,0000.36,0000.23,0000.19,0000.08,16.6,23.1,,00.0,0668.5,30.8
2021-10-16T03:26:00Z,00000200,01000000,0003.04,0002.03,0000.93,0000.13,0000.19,0000.21,0000.08,0000.16,-000.06,16.5,23.0,,00.0,0668.5,30.8
2021-10-16T03:27:00Z,00000200,01000000,0002.24,0001.97,0001.13,-000.03,0000.58,0000.45,0000.63,0000.65,0000.59,16.4,23.0,,00.0,0668.4,30.8
2021-10-16T03:28:00Z,00000200,01000000,0003.12,0001.88,0001.17,0000.24,0000.14,0000.22,0000.58,0000.41,0000.42,16.4,23.0,,00.0,0668.4,30.8
2021-10-16T03:29:00Z,00000200,01000000,0002.66,0001.85,0001.29,-000.15,0000.26,0000.19,0000.66,0000.75,0000.23,16.4,23.0,,00.0,0668.4,30.8
2021-10-16T03:30:00Z,00000200,01000000,0003.48,0002.47,0001.05,0000.19,0000.24,0000.23,0000.55,0000.96,0000.45,16.3,23.0,,00.0,0668.3,30.8
2021-10-16T03:31:00Z,00000200,01000000,0002.58,0001.85,0001.01,-000.03,0000.32,0000.25,0000.77,0000.06,0000.61,16.4,23.0,,00.0,0668.3,30.8
2021-10-16T03:32:00Z,00000200,01000000,0002.81,0001.78,0001.04,-000.56,0000.33,0000.35,0000.50,0000.46,0000.18,16.4,23.0,,00.0,0668.4,30.8
2021-10-16T03:33:00Z,00000200,01000000,0003.21,0001.83,0001.04,0000.06,0000.28,0000.26,0000.40,0000.29,0000.63,16.4,23.0,,00.0,0668.4,30.8
2021-10-16T03:34:00Z,00000200,01000000,0002.47,0001.71,0001.40,-000.09,0000.51,0000.48,0000.38,0000.80,-000.06,16.5,23.0,,00.0,0668.3,30.8
2021-10-16T03:35:00Z,00000200,01000000,0003.35,0001.91,0001.06,-000.02,0000.27,0000.28,0000.76,0000.21,0000.78,16.5,23.0,,00.0,0668.3,30.8
2021-10-16T03:36:00Z,00000200,01000000,0003.20,0001.92,0001.03,-000.54,0000.48,0000.28,0000.39,0000.53,0000.25,16.5,23.0,,00.0,0668.3,30.8
2021-10-16T03:37:00Z,00000200,01000000,0002.09,0001.65,0001.26,0000.16,0000.27,0000.19,0000.60,0000.49,0000.69,16.6,23.0,,00.0,0668.3,30.8
2021-10-16T03:38:00Z,00000200,01000000,0002.81,0001.39,0001.03,0000.12,0000.24,0000.75,0000.76,0000.69,-000.15,16.6,23.0,,00.0,0668.3,30.8
2021-10-16T03:39:00Z,00000200,01000000,0003.08,0001.72,0001.20,0000.21,0000.23,0000.13,0000.10,0000.63,0000.79,16.7,23.1,,00.0,0668.3,30.8
2021-10-16T03:40:00Z,00000200,01000000,0002.57,0001.74,0001.30,0000.27,0000.51,0000.35,0000.91,0000.46,0000.35,16.7,23.1,,00.0,0668.3,30.8
2021-10-16T03:41:00Z,00000200,01000000,0003.14,0001.78,0001.23,-000.15,0000.14,0000.25,0000.30,0000.17,-000.01,16.7,23.1,,00.0,0668.3,30.8
2021-10-16T03:42:00Z,00000200,01000000,0002.84,0001.78,0001.29,-000.48,0000.44,0000.24,0000.68,0000.75,0000.25,16.7,23.1,,00.0,0668.3,30.8
2021-10-16T03:43:00Z,00000200,01000000,0002.70,0002.13,0001.32,-000.12,0000.36,0000.50,0000.71,0000.70,0000.34,16.7,23.1,,00.0,0668.3,30.8
2021-10-16T03:44:00Z,00000200,01000000,0002.36,0001.98,0001.27,0000.01,0000.52,0000.29,0000.40,0000.48,0000.72,16.7,23.1,,00.0,0668.3,30.8
2021-10-16T03:45:00Z,00000200,01000000,0002.55,0002.06,0001.37,0000.19,0000.28,0000.45,0000.60,0000.37,0000.32,16.7,23.1,,00.0,0668.3,30.8
2021-10-16T03:46:00Z,00000200,01000000,0003.09,0001.52,0001.02,0000.61,0000.34,0000.46,0000.59,0000.37,0000.16,16.7,23.1,,00.0,0668.3,30.9
2021-10-16T03:47:00Z,00000200,01000000,0003.14,0001.98,0001.44,0000.15,0000.51,0000.22,0000.64,0000.40,0000.57,16.7,23.1,,00.0,0668.3,30.8
2021-10-16T03:48:00Z,00000200,01000000,0003.56,0002.49,0001.14,-000.34,0000.35,0000.44,0000.18,0000.18,0000.25,16.7,23.1,,00.0,0668.3,30.8
2021-10-16T03:49:00Z,00000200,01000000,0003.24,0002.36,0001.08,0000.13,0000.23,0000.49,0000.26,0000.53,0000.50,16.8,23.1,,00.0,0668.3,30.9
2021-10-16T03:50:00Z,00000200,01000000,0002.93,0002.26,0001.42,-000.00,0000.42,0000.19,0000.81,0000.79,0000.51,16.8,23.1,,00.0,0668.3,30.8
2021-10-16T03:51:00Z,00000200,01000000,0003.36,0002.20,0001.33,-000.01,0000.35,0000.38,0000.55,0000.47,0000.15,16.8,23.2,,00.0,0668.3,30.8
2021-10-16T03:52:00Z,00000200,01000000,0003.01,0001.89,0001.45,0000.25,0000.25,0000.19,0000.15,0000.16,0000.38,16.9,23.2,,00.0,0668.3,30.8
2021-10-16T03:53:00Z,00000200,01000000,0003.16,0002.18,0001.51,-000.38,-000.10,0000.03,0000.87,0000.71,0000.31,16.9,23.2,,00.0,0668.3,30.8
2021-10-16T03:54:00Z,00000200,01000000,0003.81,0001.96,0001.47,0000.14,0000.48,0000.08,0000.34,0000.16,0000.10,16.9,23.2,,00.0,0668.3,30.9
2021-10-16T03:55:00Z,00000200,01000000,0003.07,0001.78,0001.18,-000.44,0000.17,0000.59,0000.59,0000.74,0000.41,16.9,23.2,,00.0,0668.3,30.9
2021-10-16T03:56:00Z,00000200,01000000,0002.44,0001.83,0001.18,0000.16,0000.31,0000.28,0000.30,0000.09,0000.09,16.9,23.2,,00.0,0668.3,30.9
2021-10-16T03:57:00Z,00000200,41000000,,,,,,,-001.38,-001.57,-001.02,16.9,23.2,,00.0,0668.3,30.8
2021-10-16T03:58:00Z,00000200,61000000,,,,,,,0000.77,0000.92,0000.52,16.4,23.3,,00.0,0667.3,30.8
2021-10-16T03:59:00Z,00000200,21000000,,,,,,,0000.58,0000.39,0000.40,16.4,23.4,,00.0,0667.3,30.8
